This is the latest recevied weather packets stored in our database for station/object F6BIJ-13. If no packets are shown the sender has not sent any weather packets the latest 10 day(s).
| Time | Temp. | Humidity | Pressure | Rain* | Wind** | Luminosity | Snow |
|---|---|---|---|---|---|---|---|
| 1778184037 | 13.89° C | 81% | 1014.1 hPa | 0 mm | - | - | - |
| 1778183677 | 13.89° C | 79% | 1014 hPa | 0 mm | - | - | - |
| 1778183317 | 14.44° C | 78% | 1013.9 hPa | 0 mm | - | - | - |
| 1778182957 | 14.44° C | 78% | 1013.9 hPa | 0 mm | - | - | - |
| 1778182597 | 14.44° C | 74% | 1013.8 hPa | 0 mm | - | - | - |
| 1778182237 | 13.89° C | 73% | 1013.8 hPa | 0 mm | - | - | - |
| 1778181877 | 14.44° C | 74% | 1013.8 hPa | 0 mm | - | - | - |
| 1778181517 | 15° C | 75% | 1013.7 hPa | 0 mm | - | - | - |
| 1778181157 | 15° C | 73% | 1013.6 hPa | 0 mm | - | - | - |
| 1778180797 | 14.44° C | 72% | 1013.5 hPa | 0 mm | - | - | - |
| 1778180438 | 14.44° C | 73% | 1013.5 hPa | 0 mm | - | - | - |
| 1778180077 | 13.89° C | 75% | 1013.4 hPa | 0 mm | - | - | - |
| 1778179717 | 15° C | 77% | 1013.4 hPa | 0 mm | - | - | - |
| 1778179357 | 14.44° C | 77% | 1013.3 hPa | 0 mm | - | - | - |
| 1778178997 | 14.44° C | 76% | 1013.2 hPa | 0 mm | - | - | - |
| 1778178637 | 14.44° C | 78% | 1013.2 hPa | 0 mm | - | - | - |
| 1778178277 | 14.44° C | 79% | 1013.1 hPa | 0 mm | - | - | - |
| 1778177917 | 15° C | 79% | 1013.1 hPa | 0 mm | - | - | - |
| 1778177557 | 15.56° C | 79% | 1013.1 hPa | 0 mm | - | - | - |
| 1778177197 | 15.56° C | 78% | 1013 hPa | 0 mm | - | - | - |
| 1778176837 | 16.11° C | 78% | 1013.1 hPa | 0 mm | - | - | - |
| 1778176477 | 16.11° C | 77% | 1013 hPa | 0 mm | - | - | - |
| 1778176117 | 16.67° C | 74% | 1013 hPa | 0 mm | - | - | - |
| 1778175757 | 16.67° C | 73% | 1012.9 hPa | 0 mm | - | - | - |
| 1778175397 | 17.22° C | 71% | 1012.9 hPa | 0 mm | - | - | - |
* Rain latest 24 hours (hover to see other rain measurements)
** Current wind speed in m/s (hover to see current wind gust speed)